Tracking 29892 objects as of 21-Nov-2024
HD Live streaming from Space Station
objects crossing your sky now

STARLINK-6059

Track STARLINK-6059 now!
10-day predictions
STARLINK-6059 is classified as:


NORAD ID: 56814
Int'l Code: 2023-078AZ
Perigee: 577.0 km
Apogee: 581.3 km
Inclination: 70.0 °
Period: 96.1 minutes
Semi major axis: 6950 km
RCS: Unknown
Launch date: May 31, 2023
Source: United States (US)
Launch site: AIR FORCE WESTERN TEST RANGE (AFWTR)
Your satellite tracking list
Your tracking list is empty




NASA's NSSDC Master Catalog

Two Line Element Set (TLE):
1 56814U 23078AZ  24325.82931095  .00000345  00000-0  36699-4 0  9996
2 56814  69.9991  99.1021 0003140 269.6988  90.3811 14.98346026 81708
Source of the keplerian elements: AFSPC